| time (UTC) | temp F | wind direction | speed MPH | gust MPH | rain 1hr in | rain 24hr in | rain mn in | humidity % | barometer mb |
| 20260902194505 | 98 | 201 | 2.0 | 5.0 | 0.00 | 0.00 | 0.00 | 42 | 1012.0 |
| 20260902194005 | 98 | 218 | 2.0 | 5.0 | 0.00 | 0.00 | 0.00 | 44 | 1012.2 |
| 20260902193505 | 98 | 139 | 2.0 | 7.0 | 0.00 | 0.00 | 0.00 | 44 | 1012.3 |
| 20260902193005 | 98 | 160 | 3.0 | 10.0 | 0.00 | 0.00 | 0.00 | 44 | 1012.5 |
| 20260902192505 | 98 | 210 | 3.0 | 10.0 | 0.00 | 0.00 | 0.00 | 44 | 1012.5 |
| 20260902192025 | 99 | 247 | 3.0 | 10.0 | 0.00 | 0.00 | 0.00 | 44 | 1012.5 |
| 20260902191505 | 99 | 248 | 3.0 | 9.0 | 0.00 | 0.00 | 0.00 | 44 | 1012.7 |
| 20260902191004 | 99 | 218 | 3.0 | 7.0 | 0.00 | 0.00 | 0.00 | 44 | 1012.7 |
| 20260902190505 | 98 | 215 | 4.0 | 9.0 | 0.00 | 0.00 | 0.00 | 45 | 1012.8 |
| 20260902190005 | 98 | 205 | 3.0 | 9.0 | 0.00 | 0.00 | 0.00 | 45 | 1012.7 |
| 20260902185506 | 97 | 169 | 3.0 | 6.0 | 0.00 | 0.00 | 0.00 | 47 | 1013.0 |
| 20260902185026 | 97 | 146 | 3.0 | 6.0 | 0.00 | 0.00 | 0.00 | 45 | 1013.2 |
| 20260902184526 | 98 | 161 | 3.0 | 8.0 | 0.00 | 0.00 | 0.00 | 44 | 1013.3 |
| 20260902184005 | 98 | 185 | 4.0 | 9.0 | 0.00 | 0.00 | 0.00 | 45 | 1013.4 |
| 20260902183505 | 97 | 208 | 4.0 | 11.0 | 0.00 | 0.00 | 0.00 | 45 | 1013.5 |
| 20260902183005 | 98 | 249 | 4.0 | 11.0 | 0.00 | 0.00 | 0.00 | 45 | 1013.6 |
| 20260902182505 | 97 | 259 | 3.0 | 9.0 | 0.00 | 0.00 | 0.00 | 47 | 1013.7 |
| 20260902182005 | 97 | 249 | 3.0 | 9.0 | 0.00 | 0.00 | 0.00 | 46 | 1013.7 |
| 20260902181505 | 98 | 229 | 5.0 | 10.0 | 0.00 | 0.00 | 0.00 | 45 | 1013.8 |
| 20260902181004 | 98 | 214 | 5.0 | 10.0 | 0.00 | 0.00 | 0.00 | 46 | 1014.0 |
| 20260902180505 | 97 | 228 | 3.0 | 8.0 | 0.00 | 0.00 | 0.00 | 48 | 1014.1 |
| 20260902180026 | 96 | 249 | 3.0 | 8.0 | 0.00 | 0.00 | 0.00 | 49 | 1014.1 |
| 20260902175504 | 95 | 243 | 3.0 | 7.0 | 0.00 | 0.00 | 0.00 | 50 | 1014.3 |
| 20260902175026 | 95 | 225 | 4.0 | 9.0 | 0.00 | 0.00 | 0.00 | 50 | 1014.3 |
| 20260902174505 | 95 | 205 | 6.0 | 10.0 | 0.00 | 0.00 | 0.00 | 49 | 1014.6 |
| 20260902174026 | 95 | 188 | 5.0 | 10.0 | 0.00 | 0.00 | 0.00 | 49 | 1014.6 |
| 20260902173505 | 95 | 167 | 3.0 | 9.0 | 0.00 | 0.00 | 0.00 | 50 | 1014.6 |
| 20260902173008 | 94 | 187 | 3.0 | 7.0 | 0.00 | 0.00 | 0.00 | 51 | 1014.6 |
| 20260902172504 | 94 | 213 | 4.0 | 9.0 | 0.00 | 0.00 | 0.00 | 51 | 1014.8 |
| 20260902172005 | 94 | 219 | 3.0 | 9.0 | 0.00 | 0.00 | 0.00 | 52 | 1014.8 |
| 20260902171505 | 93 | 189 | 3.0 | 7.0 | 0.00 | 0.00 | 0.00 | 53 | 1014.8 |
| 20260902171006 | 93 | 199 | 4.0 | 9.0 | 0.00 | 0.00 | 0.00 | 54 | 1014.8 |
| 20260902170526 | 94 | 209 | 4.0 | 9.0 | 0.00 | 0.00 | 0.00 | 52 | 1014.9 |
| 20260902170005 | 93 | 197 | 5.0 | 10.0 | 0.00 | 0.00 | 0.00 | 52 | 1014.9 |
| 20260902165505 | 92 | 192 | 6.0 | 11.0 | 0.00 | 0.00 | 0.00 | 57 | 1015.1 |
| 20260902165026 | 92 | 185 | 5.0 | 11.0 | 0.00 | 0.00 | 0.00 | 57 | 1015.1 |
| 20260902164526 | 92 | 182 | 4.0 | 10.0 | 0.00 | 0.00 | 0.00 | 59 | 1015.2 |
| 20260902164005 | 91 | 193 | 4.0 | 8.0 | 0.00 | 0.00 | 0.00 | 58 | 1015.2 |
| 20260902163505 | 91 | 200 | 4.0 | 8.0 | 0.00 | 0.00 | 0.00 | 60 | 1015.3 |
| 20260902163005 | 91 | 203 | 4.0 | 8.0 | 0.00 | 0.00 | 0.00 | 60 | 1015.3 |
| 20260902162505 | 91 | 206 | 3.0 | 8.0 | 0.00 | 0.00 | 0.00 | 61 | 1015.3 |
| 20260902162005 | 90 | 203 | 4.0 | 10.0 | 0.00 | 0.00 | 0.00 | 63 | 1015.3 |
| 20260902161505 | 90 | 214 | 5.0 | 10.0 | 0.00 | 0.00 | 0.00 | 63 | 1015.3 |
| 20260902161005 | 90 | 228 | 5.0 | 10.0 | 0.00 | 0.00 | 0.00 | 64 | 1015.4 |
| 20260902160504 | 89 | 224 | 5.0 | 10.0 | 0.00 | 0.00 | 0.00 | 65 | 1015.4 |
| 20260902160007 | 89 | 212 | 4.0 | 9.0 | 0.00 | 0.00 | 0.00 | 65 | 1015.3 |
| 20260902155506 | 89 | 236 | 5.0 | 9.0 | 0.00 | 0.00 | 0.00 | 67 | 1015.4 |
| 20260902155005 | 88 | 265 | 5.0 | 10.0 | 0.00 | 0.00 | 0.00 | 68 | 1015.3 |
| 20260902154505 | 88 | 264 | 5.0 | 10.0 | 0.00 | 0.00 | 0.00 | 68 | 1015.3 |
| 20260902154005 | 88 | 240 | 5.0 | 10.0 | 0.00 | 0.00 | 0.00 | 69 | 1015.3 |
| 20260902153505 | 88 | 230 | 5.0 | 11.0 | 0.00 | 0.00 | 0.00 | 69 | 1015.3 |
| 20260902153026 | 87 | 226 | 6.0 | 12.0 | 0.00 | 0.00 | 0.00 | 70 | 1015.2 |
| 20260902152505 | 87 | 217 | 6.0 | 12.0 | 0.00 | 0.00 | 0.00 | 73 | 1015.2 |
| 20260902152026 | 87 | 220 | 6.0 | 12.0 | 0.00 | 0.00 | 0.00 | 72 | 1015.3 |
| 20260902151505 | 87 | 230 | 6.0 | 12.0 | 0.00 | 0.00 | 0.00 | 73 | 1015.3 |
| 20260902151005 | 86 | 222 | 7.0 | 14.0 | 0.00 | 0.00 | 0.00 | 74 | 1015.3 |
| 20260902150505 | 85 | 216 | 7.0 | 14.0 | 0.00 | 0.00 | 0.00 | 75 | 1015.3 |
| 20260902150005 | 85 | 216 | 6.0 | 12.0 | 0.00 | 0.00 | 0.00 | 75 | 1015.2 |
| 20260902145505 | 85 | 218 | 5.0 | 9.0 | 0.00 | 0.00 | 0.00 | 76 | 1015.3 |
| 20260902145027 | 85 | 222 | 6.0 | 12.0 | 0.00 | 0.00 | 0.00 | 78 | 1015.4 |
| 20260902144505 | 84 | 215 | 5.0 | 12.0 | 0.00 | 0.00 | 0.00 | 78 | 1015.4 |
| 20260902144005 | 84 | 231 | 5.0 | 10.0 | 0.00 | 0.00 | 0.00 | 78 | 1015.6 |
| 20260902143505 | 84 | 238 | 4.0 | 9.0 | 0.00 | 0.00 | 0.00 | 80 | 1015.7 |
| 20260902143005 | 84 | 225 | 4.0 | 9.0 | 0.00 | 0.00 | 0.00 | 80 | 1015.6 |
| 20260902142526 | 83 | 239 | 4.0 | 9.0 | 0.00 | 0.00 | 0.00 | 81 | 1015.5 |
| 20260902142005 | 83 | 244 | 4.0 | 9.0 | 0.00 | 0.00 | 0.00 | 82 | 1015.5 |
| 20260902141504 | 83 | 233 | 4.0 | 9.0 | 0.00 | 0.00 | 0.00 | 83 | 1015.5 |
| 20260902141005 | 82 | 226 | 3.0 | 7.0 | 0.00 | 0.00 | 0.00 | 83 | 1015.5 |
| 20260902140505 | 82 | 232 | 3.0 | 10.0 | 0.00 | 0.00 | 0.00 | 85 | 1015.5 |
| 20260902140005 | 81 | 225 | 4.0 | 10.0 | 0.00 | 0.00 | 0.00 | 86 | 1015.5 |
| 20260902135505 | 81 | 216 | 4.0 | 8.0 | 0.00 | 0.00 | 0.00 | 86 | 1015.5 |
| 20260902135004 | 80 | 214 | 4.0 | 7.0 | 0.00 | 0.00 | 0.00 | 87 | 1015.6 |
| 20260902134504 | 80 | 205 | 4.0 | 9.0 | 0.00 | 0.00 | 0.00 | 87 | 1015.6 |
| 20260902134004 | 80 | 205 | 4.0 | 9.0 | 0.00 | 0.00 | 0.00 | 88 | 1015.6 |
| 20260902133504 | 79 | 212 | 3.0 | 6.0 | 0.00 | 0.00 | 0.00 | 89 | 1015.5 |
| 20260902133004 | 79 | 212 | 2.0 | 6.0 | 0.00 | 0.00 | 0.00 | 89 | 1015.4 |
| 20260902132505 | 78 | 215 | 1.0 | 4.0 | 0.00 | 0.00 | 0.00 | 90 | 1015.4 |
| 20260902132005 | 78 | 219 | 0.0 | 4.0 | 0.00 | 0.00 | 0.00 | 90 | 1015.4 |
| 20260902131525 | 77 | 248 | 0.0 | 1.0 | 0.00 | 0.00 | 0.00 | 90 | 1015.4 |
| 20260902131005 | 76 | 0 | 0.0 | 0.0 | 0.00 | 0.00 | 0.00 | 90 | 1015.4 |
| 20260902130504 | 76 | 261 | 0.0 | 1.0 | 0.00 | 0.00 | 0.00 | 90 | 1015.3 |
| 20260902130005 | 76 | 261 | 0.0 | 1.0 | 0.00 | 0.00 | 0.00 | 90 | 1015.2 |
| 20260902125504 | 76 | 0 | 0.0 | 0.0 | 0.00 | 0.00 | 0.00 | 90 | 1015.2 |
| 20260902125005 | 76 | 261 | 0.0 | 1.0 | 0.00 | 0.00 | 0.00 | 90 | 1015.1 |
| 20260902124504 | 76 | 261 | 0.0 | 1.0 | 0.00 | 0.00 | 0.00 | 90 | 1015.1 |
| 20260902124005 | 76 | 257 | 0.0 | 2.0 | 0.00 | 0.00 | 0.00 | 90 | 1015.1 |
| 20260902123505 | 76 | 266 | 1.0 | 2.0 | 0.00 | 0.00 | 0.00 | 90 | 1014.9 |
| 20260902123004 | 76 | 273 | 0.0 | 2.0 | 0.00 | 0.00 | 0.00 | 90 | 1014.9 |
| 20260902122505 | 76 | 276 | 0.0 | 1.0 | 0.00 | 0.00 | 0.00 | 90 | 1014.9 |
| 20260902122005 | 76 | 276 | 0.0 | 1.0 | 0.00 | 0.00 | 0.00 | 89 | 1014.9 |
| 20260902121505 | 76 | 276 | 0.0 | 1.0 | 0.00 | 0.00 | 0.00 | 89 | 1014.8 |
| 20260902121004 | 76 | 0 | 0.0 | 0.0 | 0.00 | 0.00 | 0.00 | 89 | 1014.8 |
| 20260902120526 | 76 | 0 | 0.0 | 0.0 | 0.00 | 0.00 | 0.00 | 89 | 1014.8 |
| 20260902120005 | 76 | 0 | 0.0 | 0.0 | 0.00 | 0.00 | 0.00 | 89 | 1014.7 |
| 20260902115505 | 76 | 0 | 0.0 | 0.0 | 0.00 | 0.00 | 0.00 | 88 | 1014.8 |
| 20260902115025 | 76 | 0 | 0.0 | 0.0 | 0.00 | 0.00 | 0.00 | 88 | 1014.7 |
| 20260902114504 | 76 | 276 | 0.0 | 1.0 | 0.00 | 0.00 | 0.00 | 88 | 1014.7 |
| 20260902114025 | 76 | 276 | 0.0 | 1.0 | 0.00 | 0.00 | 0.00 | 88 | 1014.7 |
| 20260902113505 | 76 | 276 | 0.0 | 1.0 | 0.00 | 0.00 | 0.00 | 88 | 1014.8 |
| 20260902113005 | 76 | 276 | 0.0 | 1.0 | 0.00 | 0.00 | 0.00 | 88 | 1014.7 |
| 20260902112504 | 76 | 276 | 0.0 | 1.0 | 0.00 | 0.00 | 0.00 | 88 | 1014.6 |
| 20260902112025 | 76 | 276 | 1.0 | 2.0 | 0.00 | 0.00 | 0.00 | 88 | 1014.6 |
| 20260902111505 | 76 | 276 | 1.0 | 2.0 | 0.00 | 0.00 | 0.00 | 88 | 1014.5 |
| 20260902111004 | 76 | 241 | 0.0 | 1.0 | 0.00 | 0.00 | 0.00 | 88 | 1014.5 |
| 20260902110504 | 77 | 222 | 0.0 | 1.0 | 0.00 | 0.00 | 0.00 | 88 | 1014.5 |
| 20260902110007 | 77 | 211 | 0.0 | 1.0 | 0.00 | 0.00 | 0.00 | 88 | 1014.4 |
| 20260902105504 | 76 | 211 | 0.0 | 1.0 | 0.00 | 0.00 | 0.00 | 87 | 1014.4 |
| 20260902105004 | 77 | 211 | 0.0 | 2.0 | 0.00 | 0.00 | 0.00 | 87 | 1014.3 |
| 20260902104504 | 77 | 224 | 0.0 | 2.0 | 0.00 | 0.00 | 0.00 | 87 | 1014.4 |
| 20260902104005 | 77 | 238 | 0.0 | 2.0 | 0.00 | 0.00 | 0.00 | 87 | 1014.2 |
| 20260902103504 | 77 | 248 | 0.0 | 2.0 | 0.00 | 0.00 | 0.00 | 87 | 1014.3 |
| 20260902103004 | 77 | 255 | 1.0 | 2.0 | 0.00 | 0.00 | 0.00 | 86 | 1014.3 |
| 20260902102504 | 77 | 251 | 1.0 | 2.0 | 0.00 | 0.00 | 0.00 | 86 | 1014.2 |
| 20260902102025 | 77 | 251 | 1.0 | 2.0 | 0.00 | 0.00 | 0.00 | 86 | 1014.2 |
| 20260902101505 | 77 | 257 | 0.0 | 2.0 | 0.00 | 0.00 | 0.00 | 86 | 1014.2 |
| 20260902101004 | 77 | 263 | 0.0 | 1.0 | 0.00 | 0.00 | 0.00 | 85 | 1014.4 |
| 20260902100525 | 77 | 263 | 0.0 | 1.0 | 0.00 | 0.00 | 0.00 | 85 | 1014.3 |
| 20260902100025 | 77 | 268 | 0.0 | 1.0 | 0.00 | 0.00 | 0.00 | 84 | 1014.4 |
| 20260902095505 | 77 | 275 | 0.0 | 1.0 | 0.00 | 0.00 | 0.00 | 84 | 1014.5 |
| 20260902095005 | 77 | 277 | 0.0 | 1.0 | 0.00 | 0.00 | 0.00 | 84 | 1014.4 |
| 20260902094504 | 77 | 260 | 0.0 | 2.0 | 0.00 | 0.00 | 0.00 | 83 | 1014.4 |
| 20260902094004 | 78 | 243 | 1.0 | 2.0 | 0.00 | 0.00 | 0.00 | 83 | 1014.4 |
| 20260902093525 | 78 | 227 | 0.0 | 2.0 | 0.00 | 0.00 | 0.00 | 83 | 1014.5 |
| 20260902093004 | 78 | 227 | 0.0 | 1.0 | 0.00 | 0.00 | 0.00 | 83 | 1014.5 |
| 20260902092504 | 78 | 227 | 0.0 | 1.0 | 0.00 | 0.00 | 0.00 | 83 | 1014.5 |
| 20260902092004 | 77 | 0 | 0.0 | 0.0 | 0.00 | 0.00 | 0.00 | 83 | 1014.6 |
| 20260902091504 | 77 | 227 | 0.0 | 1.0 | 0.00 | 0.00 | 0.00 | 83 | 1014.5 |
| 20260902091004 | 77 | 227 | 0.0 | 1.0 | 0.00 | 0.00 | 0.00 | 83 | 1014.6 |
| 20260902090504 | 78 | 0 | 0.0 | 0.0 | 0.00 | 0.00 | 0.00 | 82 | 1014.6 |
| 20260902090005 | 78 | 227 | 0.0 | 1.0 | 0.00 | 0.00 | 0.00 | 82 | 1014.6 |
| 20260902085506 | 78 | 227 | 0.0 | 2.0 | 0.00 | 0.00 | 0.00 | 82 | 1014.5 |
| 20260902085005 | 78 | 228 | 0.0 | 3.0 | 0.00 | 0.00 | 0.00 | 82 | 1014.5 |
| 20260902084506 | 78 | 232 | 0.0 | 3.0 | 0.00 | 0.00 | 0.00 | 81 | 1014.6 |
| 20260902084004 | 78 | 241 | 0.0 | 2.0 | 0.00 | 0.00 | 0.00 | 81 | 1014.6 |
| 20260902083505 | 78 | 250 | 0.0 | 2.0 | 0.00 | 0.00 | 0.00 | 81 | 1014.6 |
| 20260902083025 | 78 | 258 | 0.0 | 2.0 | 0.00 | 0.00 | 0.00 | 80 | 1014.6 |
| 20260902082504 | 78 | 255 | 0.0 | 2.0 | 0.00 | 0.00 | 0.00 | 80 | 1014.6 |
| 20260902082004 | 78 | 256 | 1.0 | 2.0 | 0.00 | 0.00 | 0.00 | 79 | 1014.7 |
| 20260902081506 | 78 | 262 | 0.0 | 2.0 | 0.00 | 0.00 | 0.00 | 79 | 1014.7 |
| 20260902081005 | 79 | 260 | 0.0 | 2.0 | 0.00 | 0.00 | 0.00 | 79 | 1014.8 |
| 20260902080526 | 79 | 251 | 0.0 | 2.0 | 0.00 | 0.00 | 0.00 | 79 | 1014.7 |
| 20260902080004 | 79 | 239 | 0.0 | 2.0 | 0.00 | 0.00 | 0.00 | 79 | 1014.7 |
| 20260902075504 | 79 | 225 | 0.0 | 1.0 | 0.00 | 0.00 | 0.00 | 79 | 1014.7 |
| 20260902075004 | 79 | 232 | 0.0 | 2.0 | 0.00 | 0.00 | 0.00 | 78 | 1014.6 |
| 20260902074504 | 79 | 240 | 0.0 | 2.0 | 0.00 | 0.00 | 0.00 | 78 | 1014.6 |
| 20260902074005 | 79 | 246 | 0.0 | 1.0 | 0.00 | 0.00 | 0.00 | 78 | 1014.7 |
| 20260902073504 | 79 | 0 | 0.0 | 0.0 | 0.00 | 0.00 | 0.00 | 77 | 1014.7 |
| 20260902073004 | 79 | 246 | 0.0 | 1.0 | 0.00 | 0.00 | 0.00 | 77 | 1014.8 |
| 20260902072504 | 79 | 244 | 0.0 | 2.0 | 0.00 | 0.00 | 0.00 | 77 | 1014.7 |
| 20260902072004 | 79 | 244 | 0.0 | 2.0 | 0.00 | 0.00 | 0.00 | 77 | 1014.8 |
| 20260902071505 | 79 | 0 | 0.0 | 0.0 | 0.00 | 0.00 | 0.00 | 76 | 1014.9 |
| 20260902071004 | 79 | 0 | 0.0 | 0.0 | 0.00 | 0.00 | 0.00 | 76 | 1015.0 |
| 20260902070525 | 80 | 0 | 0.0 | 0.0 | 0.00 | 0.00 | 0.00 | 76 | 1014.9 |
| 20260902070006 | 80 | 0 | 0.0 | 0.0 | 0.00 | 0.00 | 0.00 | 76 | 1014.9 |
| 20260902065505 | 80 | 0 | 0.0 | 0.0 | 0.00 | 0.00 | 0.00 | 76 | 1014.8 |
| 20260902065006 | 80 | 0 | 0.0 | 0.0 | 0.00 | 0.00 | 0.00 | 75 | 1014.8 |
| 20260902064505 | 80 | 0 | 0.0 | 0.0 | 0.00 | 0.00 | 0.00 | 75 | 1014.8 |
| 20260902064004 | 80 | 0 | 0.0 | 0.0 | 0.00 | 0.00 | 0.00 | 75 | 1014.9 |
| 20260902063505 | 80 | 0 | 0.0 | 0.0 | 0.00 | 0.00 | 0.00 | 75 | 1014.7 |
| 20260902063005 | 80 | 74 | 0.0 | 2.0 | 0.00 | 0.00 | 0.00 | 75 | 1014.7 |
| 20260902062505 | 80 | 74 | 0.0 | 2.0 | 0.00 | 0.00 | 0.00 | 75 | 1014.8 |
| 20260902062004 | 81 | 74 | 0.0 | 1.0 | 0.00 | 0.00 | 0.00 | 74 | 1014.6 |
| 20260902061504 | 81 | 0 | 0.0 | 0.0 | 0.00 | 0.00 | 0.00 | 74 | 1014.6 |
| 20260902061004 | 81 | 0 | 0.0 | 0.0 | 0.00 | 0.00 | 0.00 | 74 | 1014.6 |
| 20260902060505 | 81 | 0 | 0.0 | 0.0 | 0.00 | 0.00 | 0.00 | 74 | 1014.7 |
| 20260902060004 | 81 | 74 | 0.0 | 2.0 | 0.00 | 0.00 | 0.00 | 73 | 1014.8 |
| 20260902055505 | 81 | 74 | 1.0 | 3.0 | 0.00 | 0.00 | 0.00 | 73 | 1014.8 |
| 20260902055005 | 81 | 74 | 2.0 | 3.0 | 0.00 | 0.00 | 0.00 | 73 | 1014.9 |
| 20260902054505 | 82 | 74 | 2.0 | 3.0 | 0.00 | 0.00 | 0.00 | 74 | 1014.8 |
| 20260902054004 | 82 | 72 | 2.0 | 3.0 | 0.00 | 0.00 | 0.00 | 74 | 1014.8 |
| 20260902053504 | 82 | 70 | 2.0 | 4.0 | 0.00 | 0.00 | 0.00 | 74 | 1014.7 |
| 20260902053004 | 82 | 68 | 1.0 | 4.0 | 0.00 | 0.00 | 0.00 | 73 | 1014.7 |
| 20260902052525 | 82 | 68 | 1.0 | 3.0 | 0.00 | 0.00 | 0.00 | 72 | 1014.7 |
| 20260902052004 | 82 | 69 | 2.0 | 3.0 | 0.00 | 0.00 | 0.00 | 72 | 1014.6 |
| 20260902051504 | 82 | 73 | 2.0 | 3.0 | 0.00 | 0.00 | 0.00 | 72 | 1014.6 |
| 20260902051005 | 82 | 80 | 2.0 | 4.0 | 0.00 | 0.00 | 0.00 | 72 | 1014.6 |
| 20260902050504 | 83 | 82 | 2.0 | 4.0 | 0.00 | 0.00 | 0.00 | 71 | 1014.6 |
| 20260902050007 | 83 | 77 | 2.0 | 4.0 | 0.00 | 0.00 | 0.00 | 71 | 1014.6 |
| 20260902045505 | 83 | 65 | 1.0 | 3.0 | 0.00 | 0.00 | 0.00 | 70 | 1014.6 |
| 20260902045004 | 83 | 73 | 2.0 | 4.0 | 0.00 | 0.00 | 0.00 | 69 | 1014.5 |
| 20260902044504 | 84 | 96 | 2.0 | 4.0 | 0.00 | 0.00 | 0.00 | 69 | 1014.5 |
| 20260902044004 | 84 | 166 | 1.0 | 3.0 | 0.00 | 0.00 | 0.00 | 69 | 1014.4 |
| 20260902043504 | 84 | 187 | 2.0 | 5.0 | 0.00 | 0.00 | 0.00 | 69 | 1014.3 |
| 20260902043004 | 84 | 194 | 3.0 | 5.0 | 0.00 | 0.00 | 0.00 | 69 | 1014.2 |
| 20260902042504 | 84 | 195 | 3.0 | 5.0 | 0.00 | 0.00 | 0.00 | 69 | 1014.0 |
| 20260902042004 | 84 | 192 | 3.0 | 5.0 | 0.00 | 0.00 | 0.00 | 69 | 1014.1 |
| 20260902041505 | 84 | 186 | 3.0 | 7.0 | 0.00 | 0.00 | 0.00 | 68 | 1014.1 |
| 20260902041004 | 84 | 178 | 3.0 | 7.0 | 0.00 | 0.00 | 0.00 | 68 | 1014.1 |
| 20260902040505 | 84 | 167 | 3.0 | 6.0 | 0.00 | 0.00 | 0.00 | 68 | 1014.0 |
| 20260902040005 | 84 | 161 | 3.0 | 6.0 | 0.00 | 0.00 | 0.00 | 68 | 1014.0 |
| 20260902035504 | 85 | 159 | 4.0 | 7.0 | 0.00 | 0.00 | 0.00 | 68 | 1014.0 |
| 20260902035025 | 85 | 160 | 4.0 | 9.0 | 0.00 | 0.00 | 0.00 | 68 | 1014.0 |
| 20260902034504 | 84 | 156 | 4.0 | 9.0 | 0.00 | 0.00 | 0.00 | 68 | 1013.9 |
| 20260902034005 | 85 | 149 | 3.0 | 7.0 | 0.00 | 0.00 | 0.00 | 68 | 1013.9 |
| 20260902033526 | 85 | 146 | 3.0 | 7.0 | 0.00 | 0.00 | 0.00 | 68 | 1014.0 |
| 20260902033004 | 85 | 143 | 4.0 | 8.0 | 0.00 | 0.00 | 0.00 | 68 | 1013.9 |
| 20260902032504 | 85 | 143 | 4.0 | 8.0 | 0.00 | 0.00 | 0.00 | 68 | 1013.9 |
| 20260902032004 | 85 | 148 | 5.0 | 9.0 | 0.00 | 0.00 | 0.00 | 68 | 1013.8 |
| 20260902031505 | 85 | 150 | 6.0 | 12.0 | 0.00 | 0.00 | 0.00 | 67 | 1013.7 |
| 20260902031004 | 85 | 146 | 6.0 | 12.0 | 0.00 | 0.00 | 0.00 | 67 | 1013.5 |
| 20260902030505 | 86 | 139 | 6.0 | 12.0 | 0.00 | 0.00 | 0.00 | 67 | 1013.5 |
| 20260902030004 | 86 | 133 | 5.0 | 10.0 | 0.00 | 0.00 | 0.00 | 66 | 1013.5 |
| 20260902025504 | 86 | 125 | 5.0 | 9.0 | 0.00 | 0.00 | 0.00 | 66 | 1013.4 |
| 20260902025004 | 87 | 114 | 4.0 | 9.0 | 0.00 | 0.00 | 0.00 | 65 | 1013.3 |
| 20260902024504 | 87 | 116 | 4.0 | 11.0 | 0.00 | 0.00 | 0.00 | 63 | 1013.3 |
| 20260902024004 | 88 | 122 | 5.0 | 11.0 | 0.00 | 0.00 | 0.00 | 62 | 1013.2 |
| 20260902023525 | 88 | 123 | 5.0 | 11.0 | 0.00 | 0.00 | 0.00 | 60 | 1013.1 |
| 20260902023004 | 89 | 121 | 3.0 | 9.0 | 0.00 | 0.00 | 0.00 | 59 | 1012.9 |
| 20260902022504 | 89 | 112 | 3.0 | 7.0 | 0.00 | 0.00 | 0.00 | 58 | 1012.7 |
| 20260902022004 | 90 | 106 | 3.0 | 8.0 | 0.00 | 0.00 | 0.00 | 58 | 1012.6 |
| 20260902021504 | 90 | 103 | 4.0 | 8.0 | 0.00 | 0.00 | 0.00 | 57 | 1012.5 |
| 20260902021004 | 90 | 100 | 5.0 | 11.0 | 0.00 | 0.00 | 0.00 | 56 | 1012.4 |
| 20260902020504 | 90 | 100 | 5.0 | 11.0 | 0.00 | 0.00 | 0.00 | 56 | 1012.4 |
| 20260902020004 | 90 | 99 | 6.0 | 13.0 | 0.00 | 0.00 | 0.00 | 55 | 1012.3 |
| 20260902015526 | 90 | 97 | 7.0 | 13.0 | 0.00 | 0.00 | 0.00 | 54 | 1012.3 |
| 20260902015004 | 90 | 94 | 6.0 | 14.0 | 0.00 | 0.00 | 0.00 | 54 | 1012.3 |
| 20260902014504 | 90 | 92 | 4.0 | 10.0 | 0.00 | 0.00 | 0.00 | 54 | 1012.2 |
| 20260902014004 | 90 | 89 | 4.0 | 7.0 | 0.00 | 0.00 | 0.00 | 54 | 1012.1 |
| 20260902013504 | 90 | 87 | 4.0 | 8.0 | 0.00 | 0.00 | 0.00 | 53 | 1012.1 |
| 20260902013004 | 91 | 87 | 4.0 | 8.0 | 0.00 | 0.00 | 0.00 | 53 | 1012.1 |
| 20260902012504 | 91 | 86 | 3.0 | 7.0 | 0.00 | 0.00 | 0.00 | 53 | 1012.0 |
| 20260902012004 | 91 | 84 | 4.0 | 8.0 | 0.00 | 0.00 | 0.00 | 53 | 1012.0 |
| 20260902011504 | 91 | 83 | 4.0 | 8.0 | 0.00 | 0.00 | 0.00 | 53 | 1011.9 |
| 20260902011025 | 91 | 82 | 4.0 | 8.0 | 0.00 | 0.00 | 0.00 | 53 | 1011.8 |
| 20260902010525 | 92 | 83 | 4.0 | 8.0 | 0.00 | 0.00 | 0.00 | 54 | 1011.7 |
| 20260902010005 | 92 | 84 | 4.0 | 8.0 | 0.00 | 0.00 | 0.00 | 53 | 1011.8 |
| 20260902005526 | 92 | 85 | 4.0 | 8.0 | 0.00 | 0.00 | 0.00 | 53 | 1011.6 |
| 20260902005006 | 92 | 85 | 5.0 | 12.0 | 0.00 | 0.00 | 0.00 | 52 | 1011.6 |
| 20260902004528 | 93 | 83 | 6.0 | 12.0 | 0.00 | 0.00 | 0.00 | 52 | 1011.4 |
| 20260902004006 | 93 | 83 | 6.0 | 10.0 | 0.00 | 0.00 | 0.00 | 51 | 1011.4 |
| 20260902003505 | 93 | 85 | 6.0 | 10.0 | 0.00 | 0.00 | 0.00 | 51 | 1011.4 |
| 20260902003006 | 94 | 83 | 6.0 | 11.0 | 0.00 | 0.00 | 0.00 | 51 | 1011.6 |
| 20260902002504 | 94 | 83 | 7.0 | 11.0 | 0.00 | 0.00 | 0.00 | 50 | 1011.6 |
| 20260902002004 | 94 | 86 | 6.0 | 11.0 | 0.00 | 0.00 | 0.00 | 50 | 1011.8 |
| 20260902001504 | 94 | 85 | 6.0 | 11.0 | 0.00 | 0.00 | 0.00 | 49 | 1011.7 |
| 20260902001005 | 94 | 83 | 7.0 | 14.0 | 0.00 | 0.00 | 0.00 | 49 | 1011.7 |
| 20260902000525 | 95 | 83 | 7.0 | 14.0 | 0.00 | 0.00 | 0.00 | 48 | 1011.7 |
| 20260902000006 | 95 | 79 | 5.0 | 12.0 | 0.00 | 0.00 | 0.00 | 47 | 1011.7 |
| 20260901235504 | 96 | 75 | 6.0 | 13.0 | 0.00 | 0.00 | 0.00 | 47 | 1011.6 |
| 20260901235004 | 96 | 80 | 7.0 | 13.0 | 0.00 | 0.00 | 0.00 | 46 | 1011.6 |
| 20260901234504 | 97 | 85 | 5.0 | 13.0 | 0.00 | 0.00 | 0.00 | 44 | 1011.7 |
| 20260901234005 | 98 | 85 | 3.0 | 7.0 | 0.00 | 0.00 | 0.00 | 40 | 1011.6 |
| 20260901233504 | 98 | 88 | 3.0 | 7.0 | 0.00 | 0.00 | 0.00 | 40 | 1011.5 |
| 20260901233004 | 98 | 89 | 3.0 | 7.0 | 0.00 | 0.00 | 0.00 | 40 | 1011.5 |
| 20260901232505 | 98 | 84 | 3.0 | 7.0 | 0.00 | 0.00 | 0.00 | 40 | 1011.5 |
| 20260901232004 | 98 | 84 | 3.0 | 6.0 | 0.00 | 0.00 | 0.00 | 40 | 1011.5 |
| 20260901231504 | 98 | 72 | 3.0 | 5.0 | 0.00 | 0.00 | 0.00 | 40 | 1011.4 |
| 20260901231004 | 98 | 76 | 4.0 | 8.0 | 0.00 | 0.00 | 0.00 | 40 | 1011.5 |
| 20260901230525 | 99 | 85 | 5.0 | 9.0 | 0.00 | 0.00 | 0.00 | 40 | 1011.5 |
| 20260901230004 | 99 | 81 | 4.0 | 9.0 | 0.00 | 0.00 | 0.00 | 40 | 1011.5 |
| 20260901225504 | 99 | 76 | 3.0 | 8.0 | 0.00 | 0.00 | 0.00 | 39 | 1011.5 |
| 20260901225004 | 99 | 83 | 3.0 | 8.0 | 0.00 | 0.00 | 0.00 | 39 | 1011.4 |
| 20260901224504 | 100 | 115 | 3.0 | 7.0 | 0.00 | 0.00 | 0.00 | 39 | 1011.5 |
| 20260901224004 | 100 | 102 | 4.0 | 8.0 | 0.00 | 0.00 | 0.00 | 39 | 1011.5 |
| 20260901223526 | 100 | 82 | 2.0 | 8.0 | 0.00 | 0.00 | 0.00 | 38 | 1011.5 |
| 20260901223005 | 101 | 263 | 1.0 | 6.0 | 0.00 | 0.00 | 0.00 | 39 | 1011.5 |
| 20260901222504 | 100 | 3 | 2.0 | 7.0 | 0.00 | 0.00 | 0.00 | 39 | 1011.5 |
| 20260901222004 | 100 | 50 | 3.0 | 7.0 | 0.00 | 0.00 | 0.00 | 40 | 1011.6 |
| 20260901221504 | 100 | 87 | 2.0 | 6.0 | 0.00 | 0.00 | 0.00 | 40 | 1011.6 |
| 20260901221004 | 99 | 154 | 1.0 | 5.0 | 0.00 | 0.00 | 0.00 | 41 | 1011.5 |
| 20260901220525 | 98 | 330 | 1.0 | 2.0 | 0.00 | 0.00 | 0.00 | 41 | 1011.6 |
| 20260901220025 | 98 | 14 | 1.0 | 3.0 | 0.00 | 0.00 | 0.00 | 41 | 1011.6 |
| 20260901215505 | 98 | 71 | 1.0 | 4.0 | 0.00 | 0.00 | 0.00 | 42 | 1011.7 |
| 20260901215004 | 98 | 115 | 2.0 | 4.0 | 0.00 | 0.00 | 0.00 | 41 | 1011.7 |
| 20260901214504 | 99 | 143 | 2.0 | 7.0 | 0.00 | 0.00 | 0.00 | 41 | 1011.8 |
| 20260901214005 | 98 | 138 | 2.0 | 7.0 | 0.00 | 0.00 | 0.00 | 41 | 1011.7 |
| 20260901213504 | 99 | 97 | 3.0 | 9.0 | 0.00 | 0.00 | 0.00 | 41 | 1011.8 |
| 20260901213004 | 99 | 91 | 4.0 | 9.0 | 0.00 | 0.00 | 0.00 | 41 | 1011.8 |
| 20260901212525 | 100 | 92 | 3.0 | 9.0 | 0.00 | 0.00 | 0.00 | 41 | 1011.8 |
| 20260901212025 | 99 | 91 | 4.0 | 10.0 | 0.00 | 0.00 | 0.00 | 41 | 1011.9 |
| 20260901211504 | 100 | 91 | 5.0 | 11.0 | 0.00 | 0.00 | 0.00 | 41 | 1012.0 |
| 20260901211004 | 100 | 113 | 4.0 | 11.0 | 0.00 | 0.00 | 0.00 | 41 | 1012.0 |
| 20260901210504 | 99 | 157 | 2.0 | 6.0 | 0.00 | 0.00 | 0.00 | 42 | 1012.1 |
| 20260901210004 | 98 | 164 | 2.0 | 6.0 | 0.00 | 0.00 | 0.00 | 43 | 1012.2 |
| 20260901205504 | 98 | 96 | 3.0 | 8.0 | 0.00 | 0.00 | 0.00 | 43 | 1012.2 |
| 20260901205025 | 98 | 53 | 3.0 | 8.0 | 0.00 | 0.00 | 0.00 | 42 | 1012.4 |
| 20260901204525 | 98 | 78 | 3.0 | 9.0 | 0.00 | 0.00 | 0.00 | 43 | 1012.5 |
| 20260901204025 | 98 | 79 | 4.0 | 10.0 | 0.00 | 0.00 | 0.00 | 43 | 1012.6 |
| 20260901203504 | 97 | 67 | 3.0 | 10.0 | 0.00 | 0.00 | 0.00 | 44 | 1012.7 |
| 20260901203004 | 96 | 60 | 3.0 | 8.0 | 0.00 | 0.00 | 0.00 | 45 | 1012.8 |
| 20260901202504 | 96 | 65 | 5.0 | 12.0 | 0.00 | 0.00 | 0.00 | 45 | 1013.0 |
| 20260901202025 | 97 | 69 | 5.0 | 12.0 | 0.00 | 0.00 | 0.00 | 44 | 1013.0 |
| 20260901201525 | 98 | 72 | 4.0 | 13.0 | 0.00 | 0.00 | 0.00 | 43 | 1013.1 |
| 20260901201004 | 98 | 66 | 4.0 | 13.0 | 0.00 | 0.00 | 0.00 | 43 | 1013.1 |
| 20260901200504 | 98 | 275 | 2.0 | 7.0 | 0.00 | 0.00 | 0.00 | 42 | 1013.2 |
| 20260901200005 | 98 | 215 | 2.0 | 7.0 | 0.00 | 0.00 | 0.00 | 43 | 1013.2 |
| 20260901195525 | 98 | 217 | 2.0 | 7.0 | 0.00 | 0.00 | 0.00 | 43 | 1013.3 |
| 20260901195004 | 98 | 95 | 2.0 | 7.0 | 0.00 | 0.00 | 0.00 | 43 | 1013.4 |